Location: Lake Arresoe
(56.0000°N, 12.5000°E)
Time: 10:31:16
(UTC+02:00)

Cosmos 1674 - Pass Details

Date: 14 August 2020
Orbit: 495 x 517 km, 82.5° (Epoch: 23 September)

Event Time Altitude Azimuth Distance (km) Brightness Sun altitude
Rises 01:26:36 0° 350° (N) 2,601 7.7 -19.7°
Reaches altitude 10° 01:28:45 10° 355° (N) 1,715 6.5 -19.7°
Maximum altitude 01:32:27 55° 74° (ENE) 608 3.1 -19.6°
Enters shadow 01:33:21 43° 124° (ESE) 721 3.1 -19.6°
